Weather History for LICZ - October, 2013

Change the Weather History Date:

Tuesday, October 8, 2013

  Actual Average Record
Temperature  
Mean Temperature 72 °F -  
Max Temperature 81 °F 74 °F 87 °F (2001)
Min Temperature 64 °F 54 °F 51 °F (2008)
Cooling Degree Days 8    
Growing Degree Days 22 (Base 50)    
Moisture  
Dew Point 64 °F    
Average Humidity 81    
Maximum Humidity 100    
Minimum Humidity 36    
Precipitation  
Precipitation 0.00 in 0.09 in - ()
Sea Level Pressure  
Sea Level Pressure 30.11 in    
Wind  
Wind Speed 4 mph ()    
Max Wind Speed 10 mph    
Max Gust Speed -    
Visibility 6.1 miles    
Events      
Averages and records for this station are not official NWS values.
T = Trace of Precipitation, MM = Missing Value Source: Averaged Metar Reports

Daily Weather History Graph

Daily Weather History Graph

Search for Another Location

Airport or City:

Trip Planner

Search our weather history database for the weather conditions in past years. The results will help you decide how hot, cold, wet, or windy it might be!

Date:

Astronomy

Oct. 08, 2013 Rise Set
Actual Time 7:01 AM CEST 6:33 PM CEST
Civil Twilight 6:35 AM CEST 6:59 PM CEST
Nautical Twilight 6:05 AM CEST 7:29 PM CEST
Astronomical Twilight 5:35 AM CEST 7:59 PM CEST
Moon 10:33 AM CEST (10/8) 8:58 PM CEST (10/8)
Length of Visible Light 12h 23m
Length of Day
11h 31m
Waxing Crescent, 14% of the Moon is Illuminated
Oct 8
Waxing Crescent
Oct 12
First Quarter
Oct 19
Full
Oct 27
Last Quarter
Nov 3
New

Hourly Weather History & Observations

Time (CEST) Temp. Heat Index Dew Point Humidity Pressure Visibility Wind Dir Wind Speed Gust Speed Precip Events Conditions
12:55 AM 68.0 °F - 66.2 °F 94% 30.09 in 6.2 mi WNW 2.3 mph - N/A   Scattered Clouds
1:55 AM 66.2 °F - 66.2 °F 100% 30.12 in 6.2 mi WNW 4.6 mph - N/A   Scattered Clouds
2:00 AM 66 °F - 66 °F 98% 30.13 in 7 mi WNW 4.6 mph - -   Scattered Clouds
2:55 AM 66.2 °F - 66.2 °F 100% 30.12 in 6.2 mi NW 4.6 mph - N/A   Mostly Cloudy
3:55 AM 68.0 °F - 66.2 °F 94% 30.09 in 6.2 mi North 2.3 mph - N/A   Mostly Cloudy
4:55 AM 66.2 °F - 66.2 °F 100% 30.09 in 6.2 mi West 4.6 mph - N/A   Mostly Cloudy
5:00 AM 67 °F - 65 °F 93% 30.11 in 6 mi West 4.6 mph - -   Overcast
5:55 AM 66.2 °F - 64.4 °F 94% 30.09 in 6.2 mi WNW 4.6 mph - N/A   Mostly Cloudy
6:55 AM 64.4 °F - 64.4 °F 100% 30.09 in 6.2 mi WSW 4.6 mph - N/A   Mostly Cloudy
7:55 AM 64.4 °F - 64.4 °F 100% 30.09 in 6.2 mi West 2.3 mph - N/A   Scattered Clouds
8:00 AM 64 °F - 64 °F 99% 30.11 in 7 mi West 2.3 mph - -   Partly Cloudy
8:55 AM 66.2 °F - 66.2 °F 100% 30.12 in 6.2 mi SSW 2.3 mph - N/A   Mostly Cloudy
9:55 AM 69.8 °F - 69.8 °F 100% 30.12 in 5.0 mi Calm Calm - N/A   Mostly Cloudy
10:55 AM 71.6 °F - 69.8 °F 94% 30.15 in 5.0 mi WNW 3.5 mph - N/A   Mostly Cloudy
11:00 AM 72 °F - 71 °F 94% 30.16 in 5 mi WNW 3.5 mph - -   Mist
11:55 AM 73.4 °F - 69.8 °F 88% 30.15 in 5.0 mi NW 3.5 mph - N/A   Mostly Cloudy
1:55 PM 78.8 °F - 59.0 °F 51% 30.12 in 6.2 mi WSW 10.4 mph - N/A   Scattered Clouds
2:00 PM 79 °F - 59 °F 39% 30.14 in 6 mi WSW 10.4 mph - -   Partly Cloudy
2:55 PM 80.6 °F 81.1 °F 59.0 °F 48% 30.09 in 6.2 mi West 6.9 mph - N/A   Scattered Clouds
3:55 PM 80.6 °F 80.8 °F 57.2 °F 45% 30.09 in 6.2 mi NNW 8.1 mph - N/A   Scattered Clouds
4:55 PM 80.6 °F 80.8 °F 57.2 °F 45% 30.06 in 6.2 mi SW 5.8 mph - N/A   Scattered Clouds
5:00 PM 80 °F - 58 °F 36% 30.09 in 6 mi SW 5.8 mph - -   Scattered Clouds
5:55 PM 77.0 °F - 57.2 °F 50% 30.09 in 6.2 mi SW 4.6 mph - N/A   Scattered Clouds
6:55 PM 75.2 °F - 57.2 °F 53% 30.09 in 6.2 mi SW 2.3 mph - N/A   Scattered Clouds
7:55 PM 71.6 °F - 62.6 °F 73% 30.09 in 6.2 mi NE 5.8 mph - N/A   Scattered Clouds
8:00 PM 72 °F - 62 °F 63% 30.11 in 6 mi NE 5.8 mph - -   Scattered Clouds
8:55 PM 71.6 °F - 69.8 °F 94% 30.09 in 6.2 mi North 4.6 mph - N/A   Scattered Clouds
9:55 PM 71.6 °F - 69.8 °F 94% 30.12 in 6.2 mi North 3.5 mph - N/A   Scattered Clouds
10:55 PM 66.2 °F - 62.6 °F 88% 30.15 in 6.2 mi SSW 3.5 mph - N/A   Partly Cloudy
11:00 PM 67 °F - 63 °F 83% 30.15 in 6 mi SSW 3.5 mph - -   Scattered Clouds
11:55 PM 64.4 °F - 64.4 °F 100% 30.15 in - WNW 3.5 mph - N/A   Clear